Flag for China Weather past 2 weeks in Foochow, Fujian, China

Now
50 °F

Overcast.


Feels Like: 45 °F
Forecast: 40 / 55 °F
Wind: 15 mph from Northeast

Location: Fuzhou Airport

Current Time: Jan 30, 2015 at 1:39:40 PM

Latest Report: Jan 30, 2015 at 1:00 PM


Visibility: N/A

Pressure: 30.27 "Hg

Humidity: 76%

Dew point: 43 °F

Location of FoochowLocation

Historic Weather in Foochow — Graph

°F

Foochow temperature yesterday

Maximum temperature yesterday: 57 °F (at 11:00 AM)
Minimum temperature yesterday: 46 °F (at 12:00 AM)
Average temperature yesterday: 52 °F

Past Weeks' High & Low Weather Summary

 TemperatureHumidityPressure
High66 °F (Jan 21, 1:00 PM)94% (Jan 25, 8:00 AM)30.42 "Hg (Jan 25, 8:00 AM)
Low43 °F (Jan 16, 6:00 AM)27% (Jan 22, 11:00 AM)30.07 "Hg (Jan 21, 2:00 PM)
Average53 °F72%30.22 "Hg
* Reported Jan 15 12:00 Noon — Jan 30 12:00 Noon, Foochow, Weather by CustomWeather, © 2014

Note: Actual official high and low records may vary slightly from our data, if they occured in-between our weather recording intervals... More about our weather records

Advertising

Foochow weather history for previous 24 hours

 ConditionsComfort  
Time TempWeatherWind HumidityBarometerVisibility
12:00 PM
Jan 30
50 °FOvercast.17 mph76%30.27 "HgN/A
11:00 AM50 °FMostly cloudy.17 mph82%30.33 "Hg6 mi
10:00 AM50 °FMostly cloudy.17 mph88%30.33 "Hg5 mi
9:00 AM50 °FLight rain. Fog.17 mph88%30.30 "Hg2 mi
8:00 AM52 °FLight rain. Mostly cloudy.15 mph82%30.27 "Hg4 mi
7:00 AM52 °FMostly cloudy.13 mph88%30.24 "HgN/A
6:00 AM52 °FMostly cloudy.17 mph88%30.21 "Hg6 mi
5:00 AM52 °FMostly cloudy.15 mph82%30.21 "Hg5 mi
4:00 AM52 °FMostly cloudy.17 mph82%30.18 "HgN/A
3:00 AM52 °FOvercast.17 mph88%30.18 "HgN/A
2:00 AM54 °FOvercast.15 mph77%30.18 "HgN/A
1:00 AM54 °FPassing clouds.13 mph82%30.18 "HgN/A
12:00 AM54 °FPassing clouds.10 mph82%30.18 "HgN/A
11:00 PM
Jan 29
54 °FPassing clouds.6 mph82%30.18 "HgN/A
10:00 PM54 °FPassing clouds.8 mph82%30.18 "HgN/A
9:00 PM54 °FPassing clouds.10 mph82%30.18 "HgN/A
8:00 PM52 °FPassing clouds.6 mph88%30.18 "HgN/A
7:00 PM54 °FPassing clouds.6 mph82%30.15 "HgN/A
6:00 PM54 °FPassing clouds.8 mph82%30.15 "HgN/A
5:00 PM55 °FPartly sunny.10 mph72%30.12 "HgN/A
4:00 PM55 °FPartly sunny.10 mph72%30.12 "HgN/A
3:00 PM57 °FOvercast.10 mph72%30.12 "HgN/A
2:00 PM55 °FOvercast.10 mph72%30.12 "HgN/A
1:00 PM55 °FPartly sunny.10 mph72%30.15 "HgN/A
Weather by CustomWeather, © 2014

See weather overviewHow to use our weather pages